Time,TemperatureF,DewpointF,PressureIn,WindDirection,WindDirectionDegrees,WindSpeedMPH,WindSpeedGustMPH,Humidity,HourlyPrecipIn,Conditions,Clouds,dailyrainin,SoftwareType,DateUTC
2013-03-11 00:14:00,19.7,16.0,30.03,NE,56,0.0,0.0,84,0.00,,,0.00,weatherlink.com 1.10,2013-03-11 05:14:00,
2013-03-11 00:28:00,19.7,16.0,30.02,SW,231,0.0,0.0,84,0.00,,,0.00,weatherlink.com 1.10,2013-03-11 05:28:00,
2013-03-11 00:43:00,19.6,16.0,30.02,SE,146,0.0,0.0,84,0.00,,,0.00,weatherlink.com 1.10,2013-03-11 05:43:00,
2013-03-11 00:58:00,19.4,16.0,30.01,South,174,0.0,0.0,85,0.00,,,0.00,weatherlink.com 1.10,2013-03-11 05:58:00,
2013-03-11 01:13:00,19.2,16.0,30.01,SSE,147,0.0,0.0,86,0.00,,,0.00,weatherlink.com 1.10,2013-03-11 06:13:00,
2013-03-11 01:28:00,19.1,16.0,30.00,SE,146,0.0,0.0,86,0.00,,,0.00,weatherlink.com 1.10,2013-03-11 06:28:00,
2013-03-11 01:43:00,19.0,16.0,29.99,SE,144,0.0,0.0,86,0.00,,,0.00,weatherlink.com 1.10,2013-03-11 06:43:00,
2013-03-11 01:58:00,19.0,16.0,29.99,SSE,152,0.0,0.0,86,0.00,,,0.00,weatherlink.com 1.10,2013-03-11 06:58:00,
2013-03-11 02:13:00,18.9,15.0,29.98,SE,137,0.0,0.0,86,0.00,,,0.00,weatherlink.com 1.10,2013-03-11 07:13:00,
2013-03-11 02:28:00,18.8,16.0,29.98,SE,139,0.0,0.0,87,0.00,,,0.00,weatherlink.com 1.10,2013-03-11 07:28:00,
2013-03-11 02:43:00,18.7,16.0,29.98,SE,142,0.0,0.0,87,0.00,,,0.00,weatherlink.com 1.10,2013-03-11 07:43:00,
2013-03-11 02:58:00,18.6,15.0,29.97,SE,136,0.0,0.0,87,0.00,,,0.00,weatherlink.com 1.10,2013-03-11 07:58:00,
2013-03-11 03:13:00,18.6,15.0,29.97,SE,138,0.0,0.0,87,0.00,,,0.00,weatherlink.com 1.10,2013-03-11 08:13:00,
2013-03-11 03:28:00,18.5,15.0,29.97,SSE,151,0.0,0.0,87,0.00,,,0.00,weatherlink.com 1.10,2013-03-11 08:28:00,
2013-03-11 03:43:00,18.4,15.0,29.96,SSE,149,0.0,0.0,87,0.00,,,0.00,weatherlink.com 1.10,2013-03-11 08:43:00,
2013-03-11 03:58:00,18.4,16.0,29.96,SSW,194,0.0,0.0,88,0.00,,,0.00,weatherlink.com 1.10,2013-03-11 08:58:00,
2013-03-11 04:13:00,18.3,15.0,29.95,South,188,0.0,0.0,88,0.00,,,0.00,weatherlink.com 1.10,2013-03-11 09:13:00,
2013-03-11 04:28:00,18.2,15.0,29.95,SSE,150,0.0,0.0,88,0.00,,,0.00,weatherlink.com 1.10,2013-03-11 09:28:00,
2013-03-11 04:44:00,18.1,15.0,29.94,SW,232,0.0,0.0,88,0.00,,,0.00,weatherlink.com 1.10,2013-03-11 09:44:00,
2013-03-11 04:59:00,18.0,15.0,29.93,SW,224,0.0,0.0,88,0.00,,,0.00,weatherlink.com 1.10,2013-03-11 09:59:00,
2013-03-11 05:14:00,18.0,15.0,29.92,SW,219,0.0,0.0,89,0.00,,,0.00,weatherlink.com 1.10,2013-03-11 10:14:00,
2013-03-11 05:29:00,17.9,15.0,29.92,SSW,211,0.0,0.0,89,0.00,,,0.00,weatherlink.com 1.10,2013-03-11 10:29:00,
2013-03-11 05:44:00,17.7,15.0,29.92,SSE,165,0.0,0.0,89,0.00,,,0.00,weatherlink.com 1.10,2013-03-11 10:44:00,
2013-03-11 05:59:00,17.3,15.0,29.91,SW,214,0.0,0.0,89,0.00,,,0.00,weatherlink.com 1.10,2013-03-11 10:59:00,
2013-03-11 06:14:00,17.2,15.0,29.91,South,177,0.0,0.0,89,0.00,,,0.00,weatherlink.com 1.10,2013-03-11 11:14:00,
2013-03-11 06:29:00,17.2,15.0,29.91,SSE,149,0.0,0.0,89,0.00,,,0.00,weatherlink.com 1.10,2013-03-11 11:29:00,
2013-03-11 06:44:00,17.2,15.0,29.90,SW,224,0.0,0.0,89,0.00,,,0.00,weatherlink.com 1.10,2013-03-11 11:44:00,
2013-03-11 06:59:00,17.1,14.0,29.90,South,170,0.0,0.0,89,0.00,,,0.00,weatherlink.com 1.10,2013-03-11 11:59:00,
2013-03-11 07:14:00,17.1,14.0,29.90,SW,215,0.0,0.0,89,0.00,,,0.00,weatherlink.com 1.10,2013-03-11 12:14:00,
2013-03-11 07:29:00,17.2,15.0,29.90,ESE,121,0.0,0.0,90,0.00,,,0.00,weatherlink.com 1.10,2013-03-11 12:29:00,
2013-03-11 07:44:00,17.3,15.0,29.90,SSW,210,0.0,0.0,89,0.00,,,0.00,weatherlink.com 1.10,2013-03-11 12:44:00,
2013-03-11 07:59:00,17.2,15.0,29.90,South,188,0.0,0.0,89,0.00,,,0.00,weatherlink.com 1.10,2013-03-11 12:59:00,
2013-03-11 08:14:00,17.3,15.0,29.90,South,176,0.0,0.0,89,0.00,,,0.00,weatherlink.com 1.10,2013-03-11 13:14:00,
2013-03-11 08:29:00,17.6,15.0,29.90,SSE,148,0.0,0.0,89,0.00,,,0.00,weatherlink.com 1.10,2013-03-11 13:29:00,
2013-03-11 08:44:00,18.3,15.0,29.89,SSW,212,0.0,0.0,88,0.00,,,0.00,weatherlink.com 1.10,2013-03-11 13:44:00,
2013-03-11 08:59:00,19.0,16.0,29.89,SSW,208,0.0,0.0,86,0.00,,,0.00,weatherlink.com 1.10,2013-03-11 13:59:00,
2013-03-11 09:14:00,18.3,15.0,29.89,SE,146,0.0,0.0,86,0.00,,,0.00,weatherlink.com 1.10,2013-03-11 14:14:00,
2013-03-11 09:29:00,18.8,16.0,29.89,ESE,117,0.0,0.0,87,0.00,,,0.00,weatherlink.com 1.10,2013-03-11 14:29:00,
2013-03-11 09:44:00,19.0,16.0,29.89,South,184,0.0,0.0,86,0.00,,,0.00,weatherlink.com 1.10,2013-03-11 14:44:00,
2013-03-11 09:59:00,18.8,15.0,29.89,WSW,254,0.0,0.0,86,0.00,,,0.00,weatherlink.com 1.10,2013-03-11 14:59:00,
2013-03-11 10:14:00,19.3,16.0,29.89,WSW,238,0.0,0.0,85,0.00,,,0.00,weatherlink.com 1.10,2013-03-11 15:14:00,
2013-03-11 10:29:00,19.8,16.0,29.89,South,173,0.0,0.0,85,0.00,,,0.00,weatherlink.com 1.10,2013-03-11 15:29:00,
2013-03-11 10:44:00,20.3,16.0,29.88,SSW,207,0.0,0.0,84,0.00,,,0.00,weatherlink.com 1.10,2013-03-11 15:44:00,
2013-03-11 10:59:00,21.0,17.0,29.88,South,187,0.0,0.0,83,0.00,,,0.00,weatherlink.com 1.10,2013-03-11 15:59:00,
2013-03-11 11:14:00,21.9,17.0,29.87,SW,225,0.0,0.0,82,0.00,,,0.00,weatherlink.com 1.10,2013-03-11 16:14:00,
2013-03-11 11:29:00,23.3,18.0,29.86,SW,214,0.0,0.0,80,0.00,,,0.00,weatherlink.com 1.10,2013-03-11 16:29:00,
2013-03-11 11:44:00,24.2,18.0,29.86,SW,229,0.0,0.0,77,0.00,,,0.00,weatherlink.com 1.10,2013-03-11 16:44:00,
2013-03-11 11:59:00,24.8,19.0,29.85,SSW,205,0.0,0.0,77,0.00,,,0.00,weatherlink.com 1.10,2013-03-11 16:59:00,
2013-03-11 12:14:00,24.5,18.0,29.85,South,179,0.0,0.0,76,0.00,,,0.00,weatherlink.com 1.10,2013-03-11 17:14:00,
2013-03-11 12:29:00,23.8,18.0,29.85,SE,146,0.0,0.0,77,0.00,,,0.00,weatherlink.com 1.10,2013-03-11 17:29:00,
2013-03-11 12:44:00,24.0,18.0,29.85,SSE,148,0.0,0.0,78,0.00,,,0.00,weatherlink.com 1.10,2013-03-11 17:44:00,
2013-03-11 12:59:00,23.9,17.0,29.84,SSW,207,0.0,0.0,75,0.00,,,0.00,weatherlink.com 1.10,2013-03-11 17:59:00,
2013-03-11 13:14:00,24.1,17.0,29.83,SE,143,3.0,6.0,75,0.00,,,0.00,weatherlink.com 1.10,2013-03-11 18:14:00,
2013-03-11 13:30:00,24.6,17.0,29.82,SW,214,3.0,6.0,73,0.00,,,0.00,weatherlink.com 1.10,2013-03-11 18:30:00,
2013-03-11 13:45:00,24.6,18.0,29.81,WSW,239,3.0,6.0,75,0.00,,,0.00,weatherlink.com 1.10,2013-03-11 18:45:00,
2013-03-11 14:00:00,24.2,17.0,29.81,SW,235,2.0,7.0,75,0.00,,,0.00,weatherlink.com 1.10,2013-03-11 19:00:00,
2013-03-11 14:15:00,23.6,17.0,29.80,WSW,242,3.0,8.0,76,0.00,,,0.00,weatherlink.com 1.10,2013-03-11 19:15:00,
2013-03-11 14:30:00,22.3,16.0,29.80,WSW,257,5.0,6.0,78,0.00,,,0.00,weatherlink.com 1.10,2013-03-11 19:30:00,
2013-03-11 14:45:00,22.0,16.0,29.80,SW,231,2.0,4.0,79,0.00,,,0.00,weatherlink.com 1.10,2013-03-11 19:45:00,
2013-03-11 15:00:00,21.6,16.0,29.80,South,179,1.0,4.0,80,0.00,,,0.00,weatherlink.com 1.10,2013-03-11 20:00:00,
2013-03-11 15:15:00,21.7,16.0,29.80,SSW,205,0.0,4.0,80,0.00,,,0.00,weatherlink.com 1.10,2013-03-11 20:15:00,
2013-03-11 15:30:00,21.1,16.0,29.80,SW,223,3.0,5.0,79,0.00,,,0.00,weatherlink.com 1.10,2013-03-11 20:30:00,
2013-03-11 16:00:00,21.1,15.0,29.80,SE,139,1.0,6.0,78,0.00,,,0.00,weatherlink.com 1.10,2013-03-11 21:00:00,
2013-03-11 16:15:00,20.8,15.0,29.80,SE,141,1.0,5.0,77,0.00,,,0.00,weatherlink.com 1.10,2013-03-11 21:15:00,
2013-03-11 16:30:00,21.6,15.0,29.80,SE,145,0.0,3.0,77,0.00,,,0.00,weatherlink.com 1.10,2013-03-11 21:30:00,
2013-03-11 16:45:00,21.6,15.0,29.80,SW,214,2.0,4.0,77,0.00,,,0.00,weatherlink.com 1.10,2013-03-11 21:45:00,
2013-03-11 17:00:00,21.6,16.0,29.80,SW,224,1.0,3.0,78,0.00,,,0.00,weatherlink.com 1.10,2013-03-11 22:00:00,
2013-03-11 17:15:00,21.6,16.0,29.80,SW,214,1.0,3.0,78,0.00,,,0.00,weatherlink.com 1.10,2013-03-11 22:15:00,
2013-03-11 17:30:00,21.6,16.0,29.80,South,179,0.0,3.0,78,0.00,,,0.00,weatherlink.com 1.10,2013-03-11 22:30:00,
2013-03-11 17:45:00,21.5,16.0,29.79,SE,146,0.0,2.0,79,0.00,,,0.00,weatherlink.com 1.10,2013-03-11 22:45:00,
2013-03-11 18:00:00,21.4,16.0,29.80,SSE,153,0.0,2.0,80,0.00,,,0.00,weatherlink.com 1.10,2013-03-11 23:00:00,
2013-03-11 18:15:00,21.3,16.0,29.80,ESE,117,0.0,2.0,81,0.00,,,0.00,weatherlink.com 1.10,2013-03-11 23:15:00,
2013-03-11 18:30:00,21.2,17.0,29.80,SSE,158,0.0,2.0,82,0.00,,,0.00,weatherlink.com 1.10,2013-03-11 23:30:00,
2013-03-11 18:45:00,21.1,17.0,29.80,SSE,151,1.0,3.0,83,0.00,,,0.00,weatherlink.com 1.10,2013-03-11 23:45:00,
2013-03-11 19:00:00,20.9,17.0,29.81,SE,139,0.0,2.0,83,0.00,,,0.00,weatherlink.com 1.10,2013-03-12 00:00:00,
2013-03-11 19:15:00,20.8,17.0,29.81,SE,141,0.0,3.0,84,0.00,,,0.00,weatherlink.com 1.10,2013-03-12 00:15:00,
2013-03-11 19:30:00,20.6,17.0,29.81,SE,127,0.0,1.0,85,0.00,,,0.00,weatherlink.com 1.10,2013-03-12 00:30:00,
2013-03-11 19:45:00,20.4,17.0,29.80,SE,125,0.0,4.0,86,0.00,,,0.00,weatherlink.com 1.10,2013-03-12 00:45:00,
2013-03-11 20:00:00,20.2,17.0,29.81,SE,129,0.0,2.0,86,0.00,,,0.00,weatherlink.com 1.10,2013-03-12 01:00:00,
2013-03-11 20:15:00,20.0,17.0,29.81,SE,135,0.0,3.0,86,0.00,,,0.00,weatherlink.com 1.10,2013-03-12 01:15:00,
2013-03-11 20:30:00,19.9,16.0,29.80,SE,131,1.0,4.0,86,0.00,,,0.00,weatherlink.com 1.10,2013-03-12 01:30:00,
2013-03-11 20:45:00,19.7,16.0,29.81,SE,143,1.0,4.0,86,0.00,,,0.00,weatherlink.com 1.10,2013-03-12 01:45:00,
2013-03-11 21:00:00,19.6,16.0,29.81,SE,141,1.0,3.0,86,0.00,,,0.00,weatherlink.com 1.10,2013-03-12 02:00:00,
2013-03-11 21:15:00,19.6,16.0,29.81,SE,135,0.0,3.0,86,0.00,,,0.00,weatherlink.com 1.10,2013-03-12 02:15:00,
2013-03-11 21:30:00,19.5,16.0,29.80,SE,131,0.0,3.0,86,0.00,,,0.00,weatherlink.com 1.10,2013-03-12 02:30:00,
2013-03-11 21:45:00,19.4,16.0,29.81,SSW,194,1.0,3.0,87,0.00,,,0.00,weatherlink.com 1.10,2013-03-12 02:45:00,
2013-03-11 22:00:00,19.3,16.0,29.81,ESE,123,0.0,3.0,87,0.00,,,0.00,weatherlink.com 1.10,2013-03-12 03:00:00,
2013-03-11 22:15:00,19.2,16.0,29.81,SE,127,0.0,4.0,87,0.00,,,0.00,weatherlink.com 1.10,2013-03-12 03:15:00,
2013-03-11 22:30:00,19.1,16.0,29.82,SE,129,1.0,3.0,87,0.00,,,0.00,weatherlink.com 1.10,2013-03-12 03:30:00,
2013-03-11 22:45:00,18.8,16.0,29.82,SE,140,0.0,1.0,88,0.00,,,0.00,weatherlink.com 1.10,2013-03-12 03:45:00,
2013-03-11 23:00:00,18.8,16.0,29.82,SE,143,0.0,2.0,88,0.00,,,0.00,weatherlink.com 1.10,2013-03-12 04:00:00,
2013-03-11 23:15:00,18.8,16.0,29.82,ESE,123,0.0,2.0,88,0.00,,,0.00,weatherlink.com 1.10,2013-03-12 04:15:00,
2013-03-11 23:30:00,18.7,16.0,29.82,SE,129,0.0,2.0,88,0.00,,,0.00,weatherlink.com 1.10,2013-03-12 04:30:00,
2013-03-11 23:45:00,18.6,16.0,29.82,SE,135,0.0,3.0,88,0.00,,,0.00,weatherlink.com 1.10,2013-03-12 04:45:00,